SNAP-3 EDDIE

Last updated on Wed Nov 05 2025 00:03:48 GMT+0000 (Coordinated Universal Time)

1 40972U 15058J 25307.94835866 .00042987 00000+0 13845-2 0 9999 2 40972 64.7521 134.6387 0058072 145.7696 214.7201 15.30308576 84255
UTC large
Height (km)
Speed (km/s)
/
Latitude / Longitude
Inclination (degrees)
Orbital Period (minutes)
Azimuth
Elevation
Range (km)
Doppler Factor

Next 0 passes for location: London (51.5072 / 0.1276)

Sorry there are no passes over London.